This is the latest recevied weather packets stored in our database for station/object W2SRH. If no packets are shown the sender has not sent any weather packets the latest 10 day(s).
| Time | Temp. | Humidity | Pressure | Rain* | Wind** | Luminosity | Snow |
|---|---|---|---|---|---|---|---|
| 1777664944 | 17.78° C | 31% | 1002.5 hPa | 0 mm | 1.79 m/s, 298° | - | - |
| 1777664345 | 17.78° C | 31% | 1002.5 hPa | 0 mm | 1.34 m/s, 283° | - | - |
| 1777663744 | 18.33° C | 31% | 1002.8 hPa | 0 mm | 0.89 m/s, 274° | - | - |
| 1777663144 | 17.78° C | 31% | 1002.9 hPa | 0 mm | 0.89 m/s, 318° | - | - |
| 1777662544 | 17.78° C | 33% | 1003.1 hPa | 0 mm | 0.45 m/s, 191° | - | - |
| 1777661944 | 17.78° C | 34% | 1003.1 hPa | 0 mm | 1.34 m/s, 292° | - | - |
| 1777661344 | 17.78° C | 35% | 1003.1 hPa | 0 mm | 0.89 m/s, 171° | - | - |
| 1777660744 | 17.22° C | 34% | 1003.2 hPa | 0 mm | 1.34 m/s, 330° | - | - |
| 1777660144 | 17.22° C | 33% | 1003.3 hPa | 0 mm | 0.89 m/s, 297° | - | - |
| 1777659543 | 16.67° C | 35% | 1003.4 hPa | 0 mm | 0.45 m/s, 299° | - | - |
| 1777658943 | 16.67° C | 35% | 1003.4 hPa | 0 mm | 1.79 m/s, 270° | - | - |
| 1777658343 | 16.11° C | 37% | 1003.5 hPa | 0 mm | 0.45 m/s, 345° | - | - |
| 1777657743 | 16.11° C | 37% | 1003.6 hPa | 0 mm | 1.79 m/s, 240° | - | - |
| 1777657143 | 16.11° C | 36% | 1003.6 hPa | 0 mm | 0.89 m/s, 282° | - | - |
| 1777656544 | 15.56° C | 37% | 1003.7 hPa | 0 mm | 1.34 m/s, 280° | - | - |
| 1777655945 | 15.56° C | 36% | 1003.7 hPa | 0 mm | 0.89 m/s, 312° | - | - |
| 1777655344 | 16.11° C | 38% | 1004 hPa | 0 mm | 0.89 m/s, 314° | - | - |
| 1777654745 | 15.56° C | 39% | 1003.9 hPa | 0 mm | 0.89 m/s, 315° | - | - |
| 1777654144 | 15° C | 41% | 1004.3 hPa | 0 mm | 0.89 m/s, 292° | - | - |
| 1777653544 | 15° C | 40% | 1004.4 hPa | 0 mm | 1.34 m/s, 275° | - | - |
| 1777652945 | 14.44° C | 39% | 1004.5 hPa | 0 mm | 0.45 m/s, 285° | - | - |
| 1777652344 | 14.44° C | 41% | 1004.7 hPa | 0 mm | 1.79 m/s, 309° | - | - |
| 1777651744 | 13.89° C | 43% | 1004.9 hPa | 0 mm | 0.45 m/s, 306° | - | - |
| 1777651144 | 13.89° C | 43% | 1005 hPa | 0 mm | 0.89 m/s, 281° | - | - |
| 1777650544 | 14.44° C | 43% | 1005.1 hPa | 0 mm | 1.34 m/s, 254° | - | - |
* Rain latest hour (hover to see other rain measurements)
** Current wind speed in m/s (hover to see current wind gust speed)